| time (UTC) | temp F | wind direction | speed MPH | gust MPH | rain 1hr in | rain 24hr in | rain mn in | humidity % | barometer mb |
| 20260509200024 | 56 | 144 | 0.0 | 10.0 | 0.00 | 0.71 | 0.00 | 88 | 1008.9 |
| 20260509194523 | 54 | 145 | 2.0 | 6.0 | 0.00 | 0.71 | 0.00 | 92 | 1009.3 |
| 20260509193044 | 53 | 144 | 2.0 | 8.0 | 0.00 | 0.71 | 0.00 | 93 | 1009.4 |
| 20260509191543 | 52 | 145 | 1.0 | 4.0 | 0.00 | 0.71 | 0.71 | 95 | 1009.6 |
| 20260509190042 | 51 | 145 | 1.0 | 5.0 | 0.00 | 0.71 | 0.71 | 95 | 1009.7 |
| 20260509184539 | 50 | 145 | 1.0 | 5.0 | 0.00 | 0.71 | 0.71 | 96 | 1009.9 |
| 20260509183050 | 50 | 145 | 1.0 | 6.0 | 0.00 | 0.71 | 0.71 | 96 | 1009.7 |
| 20260509181545 | 49 | 145 | 0.0 | 10.0 | 0.00 | 0.71 | 0.71 | 96 | 1009.7 |
| 20260509180036 | 49 | 145 | 0.0 | 6.0 | 0.00 | 0.71 | 0.71 | 96 | 1009.7 |
| 20260509174536 | 49 | 145 | 0.0 | 6.0 | 0.00 | 0.71 | 0.71 | 96 | 1009.5 |
| 20260509173033 | 49 | 145 | 0.0 | 6.0 | 0.01 | 0.71 | 0.71 | 96 | 1009.6 |
| 20260509171532 | 49 | 145 | 0.0 | 3.0 | 0.01 | 0.71 | 0.71 | 96 | 1009.4 |
| 20260509170030 | 48 | 144 | 0.0 | 4.0 | 0.02 | 0.71 | 0.71 | 96 | 1009.4 |
| 20260509164529 | 49 | 144 | 1.0 | 3.0 | 0.04 | 0.71 | 0.71 | 96 | 1009.4 |
| 20260509163032 | 48 | 144 | 1.0 | 5.0 | 0.04 | 0.70 | 0.70 | 96 | 1009.3 |
| 20260509161531 | 48 | 145 | 0.0 | 4.0 | 0.05 | 0.70 | 0.70 | 96 | 1009.2 |
| 20260509160025 | 48 | 145 | 0.0 | 4.0 | 0.05 | 0.69 | 0.69 | 96 | 1009.1 |
| 20260509154524 | 48 | 145 | 0.0 | 6.0 | 0.03 | 0.67 | 0.67 | 96 | 1009.2 |
| 20260509153024 | 48 | 145 | 1.0 | 7.0 | 0.03 | 0.66 | 0.66 | 96 | 1009.3 |
| 20260509151523 | 47 | 145 | 0.0 | 3.0 | 0.03 | 0.65 | 0.65 | 96 | 1009.3 |
| 20260509150051 | 47 | 145 | 0.0 | 3.0 | 0.03 | 0.64 | 0.64 | 96 | 1009.4 |
| 20260509144550 | 47 | 145 | 0.0 | 5.0 | 0.03 | 0.64 | 0.64 | 96 | 1009.4 |
| 20260509143048 | 47 | 145 | 0.0 | 2.0 | 0.02 | 0.63 | 0.63 | 96 | 1009.6 |
| 20260509141546 | 47 | 145 | 1.0 | 6.0 | 0.02 | 0.62 | 0.62 | 96 | 1009.7 |
| 20260509140054 | 46 | 145 | 0.0 | 2.0 | 0.01 | 0.61 | 0.61 | 96 | 1009.7 |
| 20260509134546 | 46 | 145 | 0.0 | 3.0 | 0.01 | 0.61 | 0.61 | 96 | 1009.6 |
| 20260509133015 | 46 | 145 | 0.0 | 4.0 | 0.01 | 0.61 | 0.61 | 96 | 1009.9 |
| 20260509131512 | 45 | 145 | 1.0 | 5.0 | 0.00 | 0.60 | 0.60 | 96 | 1009.9 |
| 20260509130011 | 45 | 145 | 1.0 | 0.0 | 0.00 | 0.00 | 0.60 | 96 | 1010.1 |
| 20260509124509 | 45 | 145 | 0.0 | 2.0 | 0.01 | 0.60 | 0.60 | 96 | 1010.3 |
| 20260509123009 | 45 | 145 | 0.0 | 1.0 | 0.03 | 0.60 | 0.60 | 96 | 1010.2 |
| 20260509121508 | 45 | 145 | 0.0 | 1.0 | 0.05 | 0.60 | 0.60 | 96 | 1010.3 |
| 20260509120004 | 45 | 146 | 0.0 | 0.0 | 0.05 | 0.59 | 0.59 | 96 | 1010.4 |
| 20260509114503 | 44 | 146 | 0.0 | 1.0 | 0.07 | 0.59 | 0.59 | 96 | 1010.5 |
| 20260509113002 | 44 | 146 | 0.0 | 1.0 | 0.08 | 0.56 | 0.56 | 96 | 1010.7 |
| 20260509111502 | 44 | 146 | 0.0 | 1.0 | 0.07 | 0.55 | 0.55 | 96 | 1010.7 |
| 20260509110059 | 44 | 146 | 0.0 | 0.0 | 0.08 | 0.54 | 0.54 | 96 | 1010.5 |
| 20260509104559 | 44 | 146 | 0.0 | 1.0 | 0.07 | 0.52 | 0.52 | 96 | 1010.7 |
| 20260509103102 | 43 | 146 | 0.0 | 2.0 | 0.05 | 0.49 | 0.49 | 96 | 1010.7 |
| 20260509101559 | 43 | 146 | 0.0 | 1.0 | 0.06 | 0.49 | 0.48 | 96 | 1010.9 |
| 20260509100058 | 43 | 146 | 0.0 | 1.0 | 0.06 | 0.47 | 0.46 | 96 | 1010.9 |
| 20260509094554 | 43 | 146 | 0.0 | 1.0 | 0.08 | 0.46 | 0.45 | 96 | 1010.9 |
| 20260509093057 | 43 | 146 | 0.0 | 2.0 | 0.07 | 0.45 | 0.44 | 96 | 1010.8 |
| 20260509091554 | 43 | 146 | 0.0 | 1.0 | 0.05 | 0.43 | 0.42 | 96 | 1010.8 |
| 20260509090051 | 43 | 146 | 0.0 | 1.0 | 0.04 | 0.41 | 0.40 | 96 | 1010.9 |
| 20260509084555 | 43 | 146 | 0.0 | 1.0 | 0.02 | 0.38 | 0.37 | 96 | 1011.1 |
| 20260509083051 | 43 | 146 | 0.0 | 1.0 | 0.04 | 0.38 | 0.37 | 96 | 1010.9 |
| 20260509081549 | 43 | 146 | 0.0 | 2.0 | 0.06 | 0.38 | 0.37 | 96 | 1011.0 |
| 20260509080029 | 43 | 146 | 0.0 | 2.0 | 0.06 | 0.37 | 0.36 | 95 | 1010.8 |
| 20260509074518 | 43 | 146 | 0.0 | 1.0 | 0.05 | 0.36 | 0.35 | 95 | 1010.8 |
| 20260509073014 | 43 | 146 | 0.0 | 1.0 | 0.03 | 0.34 | 0.33 | 95 | 1011.2 |
| 20260509071513 | 43 | 146 | 0.0 | 0.0 | 0.02 | 0.32 | 0.31 | 95 | 1011.3 |
| 20260509070013 | 43 | 146 | 0.0 | 0.0 | 0.02 | 0.31 | 0.30 | 95 | 1011.3 |
| 20260509064511 | 43 | 146 | 0.0 | 0.0 | 0.02 | 0.31 | 0.30 | 95 | 1011.5 |
| 20260509063012 | 43 | 146 | 0.0 | 0.0 | 0.03 | 0.31 | 0.30 | 95 | 1011.7 |
| 20260509061537 | 43 | 146 | 0.0 | 1.0 | 0.02 | 0.30 | 0.28 | 95 | 1012.1 |
| 20260509060037 | 43 | 146 | 0.0 | 1.0 | 0.01 | 0.28 | 0.28 | 95 | 1012.5 |
| 20260509054538 | 43 | 146 | 0.0 | 2.0 | 0.02 | 0.28 | 0.28 | 95 | 1012.8 |
| 20260509053038 | 43 | 146 | 0.0 | 2.0 | 0.02 | 0.28 | 0.27 | 95 | 1012.8 |
| 20260509051537 | 44 | 146 | 0.0 | 3.0 | 0.03 | 0.28 | 0.27 | 95 | 1013.0 |
| 20260509050032 | 44 | 146 | 0.0 | 2.0 | 0.05 | 0.28 | 0.27 | 95 | 1013.1 |
| 20260509044529 | 44 | 146 | 0.0 | 1.0 | 0.05 | 0.27 | 0.26 | 95 | 1013.1 |
| 20260509043028 | 44 | 146 | 0.0 | 2.0 | 0.04 | 0.26 | 0.25 | 95 | 1013.3 |
| 20260509041531 | 44 | 146 | 0.0 | 0.0 | 0.04 | 0.25 | 0.24 | 94 | 1013.4 |
| 20260509040027 | 44 | 146 | 0.0 | 2.0 | 0.03 | 0.23 | 0.22 | 94 | 1013.6 |
| 20260509034526 | 44 | 146 | 0.0 | 1.0 | 0.03 | 0.22 | 0.21 | 94 | 1013.4 |
| 20260509033024 | 44 | 146 | 0.0 | 0.0 | 0.05 | 0.22 | 0.21 | 94 | 1013.4 |
| 20260509031525 | 44 | 146 | 0.0 | 0.0 | 0.05 | 0.21 | 0.20 | 94 | 1013.4 |
| 20260509030024 | 44 | 146 | 0.0 | 2.0 | 0.05 | 0.20 | 0.19 | 94 | 1013.5 |
| 20260509024520 | 44 | 146 | 0.0 | 2.0 | 0.05 | 0.19 | 0.18 | 94 | 1013.7 |
| 20260509023021 | 44 | 146 | 0.0 | 2.0 | 0.04 | 0.17 | 0.16 | 93 | 1013.6 |
| 20260509021519 | 44 | 146 | 0.0 | 3.0 | 0.06 | 0.16 | 0.15 | 93 | 1013.5 |
| 20260509020017 | 44 | 147 | 0.0 | 6.0 | 0.09 | 0.15 | 0.14 | 93 | 1013.7 |
| 20260509014533 | 45 | 147 | 1.0 | 4.0 | 0.11 | 0.14 | 0.13 | 92 | 1013.6 |
| 20260509013012 | 45 | 147 | 1.0 | 5.0 | 0.11 | 0.13 | 0.12 | 92 | 1013.7 |
| 20260509011510 | 45 | 147 | 1.0 | 4.0 | 0.08 | 0.10 | 0.09 | 91 | 1013.6 |
| 20260509010006 | 46 | 147 | 0.0 | 2.0 | 0.04 | 0.06 | 0.05 | 89 | 1013.3 |
| 20260509004626 | 46 | 147 | 0.0 | 2.0 | 0.01 | 0.03 | 0.02 | 88 | 1013.1 |
| 20260509003100 | 46 | 147 | 0.0 | 1.0 | 0.00 | 0.02 | 0.01 | 87 | 1012.8 |
| 20260509001558 | 46 | 147 | 0.0 | 4.0 | 0.01 | 0.02 | 0.01 | 88 | 1012.8 |
| 20260509000056 | 46 | 147 | 0.0 | 4.0 | 0.01 | 0.02 | 0.01 | 88 | 1012.7 |
| 20260508234552 | 47 | 147 | 0.0 | 5.0 | 0.01 | 0.02 | 0.01 | 88 | 1012.6 |
| 20260508233101 | 48 | 147 | 1.0 | 8.0 | 0.01 | 0.02 | 0.01 | 86 | 1012.7 |
| 20260508231550 | 49 | 147 | 0.0 | 7.0 | 0.00 | 0.01 | 0.00 | 82 | 1012.6 |
| 20260508230052 | 50 | 147 | 1.0 | 9.0 | 0.00 | 0.01 | 0.00 | 78 | 1012.3 |
| 20260508224509 | 50 | 148 | 2.0 | 7.0 | 0.00 | 0.01 | 0.00 | 77 | 1012.1 |
| 20260508223011 | 51 | 148 | 0.0 | 3.0 | 0.00 | 0.01 | 0.00 | 75 | 1012.0 |
| 20260508221504 | 51 | 148 | 0.0 | 8.0 | 0.00 | 0.01 | 0.00 | 74 | 1012.0 |
| 20260508220002 | 51 | 148 | 2.0 | 6.0 | 0.00 | 0.01 | 0.00 | 75 | 1012.2 |
| 20260508214500 | 51 | 148 | 2.0 | 6.0 | 0.00 | 0.01 | 0.00 | 77 | 1012.2 |
| 20260508213100 | 51 | 148 | 1.0 | 11.0 | 0.00 | 0.01 | 0.00 | 76 | 1012.1 |
| 20260508211534 | 51 | 148 | 3.0 | 12.0 | 0.00 | 0.01 | 0.00 | 73 | 1012.2 |
| 20260508210026 | 52 | 148 | 1.0 | 7.0 | 0.00 | 0.01 | 0.00 | 75 | 1012.0 |
| 20260508204554 | 52 | 148 | 0.0 | 13.0 | 0.00 | 0.01 | 0.00 | 68 | 1012.2 |
| 20260508203056 | 54 | 150 | 1.0 | 10.0 | 0.00 | 0.01 | 0.00 | 61 | 1011.8 |
| 20260508201548 | 54 | 150 | 2.0 | 9.0 | 0.00 | 0.01 | 0.00 | 63 | 1011.8 |